Content
SEND FEEDBACK

Daily
Averages
Monthly
Summary
Canada

STE. DOROTHEE, QUEBEC


Home > North America > Canada > Quebec
Elevation: 75 feet     Latitude: 45 31N     Longitude: 73 47W

WEATHER
 
SELECT A DAY
Number of Records: 198,548;   Date Range: 1/1/95 - 8/27/14
 
SHARE

PRINT THIS DATA

[ ← Previous Day ]
WEATHER ALMANAC - NOVEMBER 13, 2013
[ Next Day → ]
[ °C ]   °F
Weather ElementAverageHighLow
Temperature26.1 °F33.8 °F (10:00 pm)19 °F (7:00 am)
Dewpoint15.6 °F26.6 °F (9:00 pm)6.8 °F (10:00 am)
Humidity63.9 %80 % (3:00 am)37 % (1:00 pm)
Barometer30.22 in30.33 in (8:00 am)29.96 in (11:00 pm)
Wind Speed15.7 mph20.7 mph (9:00 pm)
Wind Gust28.8 mph (10:00 pm)
Weather ElementAverage
Visibility18.1 mi
Wind DirectionWSW (238.2 °)

Weather ElementTotal
Precipitation---
Heating Degree Days38.6 (Base 65)
Averaged from 28 records on November 13, 2013
WEATHER CONDITIONS BREAKOUT
WIND DIRECTION BREAKOUT
WEATHER BY HOUR - NOVEMBER 13, 2013
[ °C ]   °F
Local TimeTemperatureDewpointHumidityBarometerVisibilityWind DirectionWind SpeedGust SpeedPrecipitationEventsConditions
1:00 AM22.0 °F14.0 °F59 %30.29 in15.0 miWest (270°)12.7 mphScattered Clouds
1:00 AM23.0 °F14.0 °F68 %30.28 in15.0 miWest (270°)12.7 mphPartly Cloudy
2:00 AM21.2 °F14.0 °F74 %30.29 in15.0 miWSW (250°)17.3 mphPartly Cloudy
3:00 AM19.4 °F14.0 °F80 %30.30 in15.0 miWSW (240°)10.4 mphPartly Cloudy
4:00 AM19.4 °F14.0 °F80 %30.29 in15.0 miWSW (240°)10.4 mphPartly Cloudy
5:00 AM21.2 °F14.0 °F74 %30.30 in15.0 miWest (270°)11.5 mphPartly Cloudy
6:00 AM19.4 °F14.0 °F80 %30.31 in15.0 miWest (270°)13.8 mphPartly Cloudy
7:00 AM19.4 °F12.2 °F74 %30.32 in15.0 miWSW (250°)9.2 mph18.4 mphPartly Cloudy
7:00 AM19.0 °F12.0 °F64 %30.32 in15.0 miWest (270°)11.5 mphScattered Clouds
8:00 AM19.4 °F12.2 °F74 %30.33 in15.0 miWSW (240°)12.7 mphPartly Cloudy
9:00 AM21.2 °F10.4 °F63 %30.33 in30.0 miWSW (250°)17.3 mphPartly Cloudy
10:00 AM24.8 °F6.8 °F46 %30.33 in30.0 miWSW (250°)18.4 mph25.3 mphPartly Cloudy
11:00 AM24.8 °F8.6 °F50 %30.30 in30.0 miWSW (240°)15.0 mph23.0 mphPartly Cloudy
12:00 PM26.6 °F10.4 °F51 %30.27 in30.0 miSW (230°)16.1 mphMostly Cloudy
1:00 PM28.4 °F12.2 °F51 %30.25 in30.0 miSW (230°)18.4 mph24.2 mphOvercast
1:00 PM28.0 °F12.0 °F37 %30.25 in28.0 miWSW (240°)17.3 mphOvercast
1:35 PM28.4 °F12.2 °F51 %30.24 in15.0 miWSW (250°)18.4 mph24.2 mphSnowLight Snow Showers
2:00 PM28.4 °F14.0 °F55 %30.22 in15.0 miWSW (240°)18.4 mph25.3 mphOvercast
3:00 PM28.4 °F14.0 °F55 %30.21 in15.0 miSW (230°)18.4 mphOvercast
4:00 PM28.4 °F15.8 °F59 %30.17 in15.0 miWSW (240°)10.4 mph18.4 mphOvercast
5:00 PM30.2 °F17.6 °F60 %30.14 in15.0 miSSW (210°)15.0 mphOvercast
6:00 PM32.0 °F21.2 °F64 %30.12 in15.0 miSW (220°)19.6 mph26.5 mphOvercast
7:00 PM33.0 °F24.0 °F57 %30.09 in15.0 miSW (220°)18.4 mphOvercast
7:00 PM32.0 °F23.0 °F69 %30.09 in15.0 miSSW (210°)19.6 mphOvercast
8:00 PM32.0 °F24.8 °F75 %30.06 in15.0 miSSW (210°)18.4 mph27.6 mphOvercast
9:00 PM32.0 °F26.6 °F80 %30.02 in15.0 miSSW (210°)20.7 mphMostly Cloudy
10:00 PM33.8 °F24.8 °F70 %29.98 in15.0 miSSW (210°)19.6 mph28.8 mphOvercast
11:00 PM33.8 °F24.8 °F70 %29.96 in15.0 miSSW (210°)18.4 mph26.5 mphOvercast
Hourly data recorded from CYUL, located miles away from Ste. Dorothee, Quebec







STORIES FROM OUR PARTNERS